KUIPER-00054

Last updated on Thu Jul 03 2025 00:02:08 GMT+0000 (Coordinated Universal Time)

1 64514U 25134Q 25183.58335648 .00003788 00000+0 11766-3 0 9995 2 64514 51.8769 286.9135 0003511 119.8057 0.9732 15.35876396 2593
UTC large
Height (km)
Speed (km/s)
/
Latitude / Longitude
Inclination (degrees)
Orbital Period (minutes)
Azimuth
Elevation
Range (km)
Doppler Factor

Next 0 passes for location: London (51.5072 / 0.1276)

Sorry there are no passes over London.